Location: Adamstown South Public School
(32.9318°S, 151.7012°E)
Time: 13:12:02
(UTC+00:00)

Okean O Rocket - Pass Details

Date: 07 June 2020
Orbit: 622 x 646 km, 98.2° (Epoch: 04 July)

Event Time Altitude Azimuth Distance (km) Brightness Sun altitude
Rises 08:40:53 0° 185° (S) 2,974 5.0 -22.0°
Reaches altitude 10° 08:43:29 10° 199° (SSW) 2,060 4.3 -22.5°
Maximum altitude 08:46:56 22° 250° (WSW) 1,403 3.9 -23.2°
Drops below altitude 10° 08:50:24 10° 300° (WNW) 2,047 5.2 -23.9°
Sets 08:52:59 0° 315° (NW) 2,950 5.9 -24.4°
